Regional Weather Roundup
Issued by NWS

Home | Current Version | Previous Version | Graphics & Text | Print | Product List | Glossary On
Versions: 1 2 3 4 5 6 7 8 9 10 11 12 13 14 15 16 17 18 19 20 21 22 23 24 25 26 27 28 29 30 31 32 33 34 35 36 37 38 39 40 41 42 43 44 45 46 47 48 49 50
907
ASUS44 KLIX 162205
RWRLA
LOUISIANA WEATHER ROUNDUP
NATIONAL WEATHER SERVICE NEW ORLEANS LA
500 PM CDT WED APR 16 2014

NOTE: "FAIR" INDICATES FEW OR NO CLOUDS BELOW 12,000 FEET WITH NO
      SIGNIFICANT WEATHER AND/OR OBSTRUCTIONS TO VISIBILITY.
      SKY/WX - SKY CONDITION AND SIGNIFICANT WEATHER.
      TMP - AIR TEMPERATURE.    DP   - DEWPOINT TEMPERATURE.
      RH  - RELATIVE HUMIDITY.  PRES - PRESSURE.
      HX  - HEAT INDEX.         WCI  - WIND CHILL INDEX.

*  THESE STATIONS ARE NOT NWS OR FAA STATIONS AND ARE NOT UNDER
   NWS QUALITY CONTROL.

LAZ040-048-061>063-065-066-069-162300-
SOUTHEAST LOUISIANA

CITY           SKY/WX    TMP DP  RH WIND       PRES   REMARKS
N.O. AUDUBON   NOT AVBL
N.O. INTL ARPT MOSUNNY   63  39  41 NE12      30.13S
N.O. LAKEFRONT MOSUNNY   61  40  45 NE9       30.14F
N.O. DOWNTOWN* FAIR      61  37  41 NE8       30.14S
SLIDELL        MOSUNNY   61  41  47 S7        30.13F
BATON ROUGE    MOSUNNY   65  37  35 E5        30.11F
BOOTHVILLE     CLOUDY    58  45  62 NE9       30.15F
BELLE CHASSE   MOSUNNY   62  40  44 E7        30.14R
BOGALUSA*        N/A     67  31  25 SW6       30.14S
GALLIANO*      MOCLDY    62  47  56 E8        30.13F
NEW ROADS*     FAIR      63  40  43 SE5       30.11F
GONZALES*      FAIR      64  43  47 S5        30.11S
HAMMOND*       MOSUNNY   64  32  29 SW6       30.14F
HOUMA*         MOSUNNY   66  43  42 NE8       30.12F
PORT FOURCHON* CLOUDY    59  46  63 NE9       30.15S

$$

LAZ041-044-053-054-162300-
SOUTHWEST LOUISIANA

CITY           SKY/WX    TMP DP  RH WIND       PRES   REMARKS
LAKE CHARLES   PTSUNNY   63  46  54 VRB7      30.09F
LAFAYETTE      PTSUNNY   64  47  53 S9        30.10F
PATTERSON      MOSUNNY   66  43  42 E8        30.14S
SALT POINT       N/A     65  47  52 VRB6      30.10F
NEW IBERIA     PTSUNNY   64  44  48 S10       30.11F
CHENAULT AIRPK MOSUNNY   64  41  42 S5        30.10F

$$

LAZ027-028-162300-
CENTRAL LOUISIANA

CITY           SKY/WX    TMP DP  RH WIND       PRES   REMARKS
FORT POLK      PTSUNNY   63  35  35 SE8G17    30.08F
ALEXANDRIA INT MOSUNNY   63  39  41 E8        30.08F
ALEXANDRIA     MOSUNNY   64  34  32 SW5G18    30.10F

$$

LAZ001-002-162300-
NORTHWEST LOUISIANA

CITY           SKY/WX    TMP DP  RH WIND       PRES   REMARKS
SHREVEPORT     PTSUNNY   64  37  36 E8        30.05F
BARKSDALE AFB  PTSUNNY   64  33  32 S9        30.07F
DTN SHREVEPORT PTSUNNY   62  37  39 SE8       30.07F

$$

LAZ014-016-162300-
NORTHEAST LOUISIANA

CITY           SKY/WX    TMP DP  RH WIND       PRES   REMARKS
MONROE         MOSUNNY   61  36  39 VRB3      30.12F
TALLULAH       MOSUNNY   63  33  32 CALM      30.13S

$$




USA.gov is the U.S. government's official web portal to all federal, state and local government web resources and services.